,,Stat5,,Stat1,,Stat2,,Stat3,,Stat4,,Wind1,,Wind1,
time,status,PA1M_AVG,status,PR1M_SUM,status,RH1M_AVG,status,SR1M_AVG,status,TA1M_AVG,status,W1dAve1m,status,W1sAve1m,
2000-09-17, 00:00:00,VALID,917.495,VALID,0,VALID,97.9695,VALID,-0.101885,VALID,20.2204,VALID,95,VALID,0.588405,
2000-09-17, 00:01:00,VALID,917.484,VALID,0,VALID,97.9581,VALID,-0.101885,VALID,20.2204,VALID,120,VALID,0.441741,
2000-09-17, 00:02:00,VALID,917.475,VALID,0,VALID,98.0242,VALID,-0.0849042,VALID,20.2303,VALID,105,VALID,0.530816,
2000-09-17, 00:03:00,VALID,917.48,VALID,0,VALID,98.0026,VALID,-0.0849042,VALID,20.2395,VALID,79,VALID,0.624178,
2000-09-17, 00:04:00,VALID,917.453,VALID,0,VALID,97.8907,VALID,-0.0849042,VALID,20.2107,VALID,81,VALID,0.426339,
2000-09-17, 00:05:00,VALID,917.442,VALID,0,VALID,97.9441,VALID,-0.0509425,VALID,20.2045,VALID,79,VALID,0.403245,
2000-09-17, 00:06:00,VALID,917.455,VALID,0,VALID,98.0216,VALID,-0.0849042,VALID,20.2238,VALID,100,VALID,0.404182,
2000-09-17, 00:07:00,VALID,917.453,VALID,0,VALID,98.0471,VALID,-0.0849042,VALID,20.2236,VALID,102,VALID,0.154605,
2000-09-17, 00:08:00,VALID,917.425,VALID,0,VALID,97.9911,VALID,-0.101885,VALID,20.2107,VALID,83,VALID,0.306818,
2000-09-17, 00:09:00,VALID,917.415,VALID,0,VALID,97.9898,VALID,-0.0849042,VALID,20.198,VALID,81,VALID,0.494932,
2000-09-17, 00:10:00,VALID,917.405,VALID,0,VALID,98.0026,VALID,-0.0849042,VALID,20.2045,VALID,88,VALID,0.157278,
2000-09-17, 00:11:00,VALID,917.404,VALID,0,VALID,98.014,VALID,-0.101885,VALID,20.2077,VALID,120,VALID,0.0117188,
2000-09-17, 00:12:00,VALID,917.407,VALID,0,VALID,98.0827,VALID,-0.101885,VALID,20.2201,VALID,120,VALID,0,
2000-09-17, 00:13:00,VALID,917.393,VALID,0,VALID,98.0509,VALID,-0.0849042,VALID,20.2298,VALID,120,VALID,0,
2000-09-17, 00:14:00,VALID,917.379,VALID,0,VALID,98.0165,VALID,-0.101885,VALID,20.2365,VALID,120,VALID,0,
2000-09-17, 00:15:00,VALID,917.369,VALID,0,VALID,97.9784,VALID,0,VALID,20.2541,VALID,134,VALID,0,
2000-09-17, 00:16:00,VALID,917.372,VALID,0,VALID,97.9644,VALID,0,VALID,20.2479,VALID,247,VALID,0,
2000-09-17, 00:17:00,VALID,917.378,VALID,0,VALID,97.9199,VALID,0,VALID,20.2703,VALID,234,VALID,0,
2000-09-17, 00:18:00,VALID,917.384,VALID,0,VALID,97.9021,VALID,0.0169808,VALID,20.2708,VALID,236,VALID,0,
2000-09-17, 00:19:00,VALID,917.383,VALID,0,VALID,97.9097,VALID,0,VALID,20.2765,VALID,231,VALID,0,
2000-09-17, 00:20:00,VALID,917.39,VALID,0,VALID,97.85,VALID,0.0169808,VALID,20.267,VALID,254,VALID,0,
2000-09-17, 00:21:00,VALID,917.384,VALID,0,VALID,97.7737,VALID,0.0169808,VALID,20.2576,VALID,263,VALID,0.0642578,
2000-09-17, 00:22:00,VALID,917.397,VALID,0,VALID,97.6287,VALID,0.0509425,VALID,20.2414,VALID,235,VALID,0.89383,
2000-09-17, 00:23:00,VALID,917.417,VALID,0,VALID,97.6071,VALID,0.0509425,VALID,20.2347,VALID,242,VALID,0.819141,
2000-09-17, 00:24:00,VALID,917.435,VALID,0,VALID,97.6096,VALID,0.0169808,VALID,20.2382,VALID,232,VALID,0.606291,
2000-09-17, 00:25:00,VALID,917.456,VALID,0,VALID,97.5664,VALID,0.0679233,VALID,20.2153,VALID,234,VALID,0.319727,
2000-09-17, 00:26:00,VALID,917.458,VALID,0,VALID,97.5422,VALID,0.0339617,VALID,20.2059,VALID,250,VALID,0,
2000-09-17, 00:27:00,VALID,917.46,VALID,0,VALID,97.5143,VALID,0,VALID,20.1731,VALID,278,VALID,0,
2000-09-17, 00:28:00,VALID,917.481,VALID,0,VALID,97.5791,VALID,0.0339617,VALID,20.1731,VALID,283,VALID,0,
2000-09-17, 00:29:00,VALID,917.472,VALID,0,VALID,97.5918,VALID,0,VALID,20.1801,VALID,282,VALID,0,
2000-09-17, 00:30:00,VALID,917.486,VALID,0,VALID,97.5664,VALID,0.0169808,VALID,20.1604,VALID,275,VALID,0,
2000-09-17, 00:31:00,VALID,917.476,VALID,0,VALID,97.5054,VALID,0.0169808,VALID,20.1316,VALID,284,VALID,0.326172,
2000-09-17, 00:32:00,VALID,917.478,VALID,0,VALID,97.4469,VALID,0,VALID,20.112,VALID,270,VALID,0.368421,
2000-09-17, 00:33:00,VALID,917.487,VALID,0,VALID,97.4151,VALID,0,VALID,20.0856,VALID,260,VALID,0.458398,
2000-09-17, 00:34:00,VALID,917.496,VALID,0,VALID,97.3579,VALID,0,VALID,20.0894,VALID,257,VALID,0.198718,
2000-09-17, 00:35:00,VALID,917.496,VALID,0,VALID,97.3019,VALID,0,VALID,20.0767,VALID,252,VALID,0.243359,
2000-09-17, 00:36:00,VALID,917.502,VALID,0,VALID,97.2663,VALID,0,VALID,20.0737,VALID,242,VALID,0.645354,
2000-09-17, 00:37:00,VALID,917.513,VALID,0,VALID,97.2307,VALID,0,VALID,20.0576,VALID,205,VALID,0.269141,
2000-09-17, 00:38:00,VALID,917.527,VALID,0,VALID,97.2485,VALID,0,VALID,20.0645,VALID,215,VALID,0,
2000-09-17, 00:39:00,VALID,917.523,VALID,0,VALID,97.2854,VALID,0,VALID,20.0449,VALID,216,VALID,0,
2000-09-17, 00:40:00,VALID,917.502,VALID,0,VALID,97.2701,VALID,-0.0169808,VALID,20.0541,VALID,217,VALID,0,
2000-09-17, 00:41:00,VALID,917.478,VALID,0,VALID,97.0934,VALID,0,VALID,20.0384,VALID,199,VALID,0,
2000-09-17, 00:42:00,VALID,917.475,VALID,0,VALID,96.9726,VALID,0,VALID,20.0188,VALID,195,VALID,0,
2000-09-17, 00:43:00,VALID,917.451,VALID,0,VALID,96.9179,VALID,0.0169808,VALID,19.9989,VALID,195,VALID,0,
2000-09-17, 00:44:00,VALID,917.455,VALID,0,VALID,96.9217,VALID,0,VALID,19.9862,VALID,197,VALID,0,
2000-09-17, 00:45:00,VALID,917.443,VALID,0,VALID,96.8263,VALID,0,VALID,19.9733,VALID,196,VALID,0,
2000-09-17, 00:46:00,VALID,917.424,VALID,0,VALID,96.8454,VALID,0,VALID,19.9415,VALID,201,VALID,0,
2000-09-17, 00:47:00,VALID,917.404,VALID,0,VALID,96.9242,VALID,0.0169808,VALID,19.9157,VALID,212,VALID,0,
2000-09-17, 00:48:00,VALID,917.353,VALID,0,VALID,96.9586,VALID,0,VALID,19.8831,VALID,212,VALID,0,
2000-09-17, 00:49:00,VALID,917.306,VALID,0,VALID,97.0044,VALID,0,VALID,19.8605,VALID,213,VALID,0,
2000-09-17, 00:50:00,VALID,917.288,VALID,0,VALID,96.9904,VALID,0.0169808,VALID,19.8344,VALID,182,VALID,0,
2000-09-17, 00:51:00,VALID,917.264,VALID,0,VALID,96.5351,VALID,0.0169808,VALID,19.7705,VALID,129,VALID,0.209766,
2000-09-17, 00:52:00,VALID,917.256,VALID,0,VALID,96.6712,VALID,0.0169808,VALID,19.7281,VALID,145,VALID,0.176192,
2000-09-17, 00:53:00,VALID,917.235,VALID,0,VALID,96.7907,VALID,0.0169808,VALID,19.7281,VALID,202,VALID,0,
2000-09-17, 00:54:00,VALID,917.225,VALID,0,VALID,96.8034,VALID,0.0169808,VALID,19.6863,VALID,218,VALID,0.204527,
2000-09-17, 00:55:00,VALID,917.216,VALID,0,VALID,97.2269,VALID,0.0169808,VALID,19.7186,VALID,198,VALID,0.964648,
2000-09-17, 00:56:00,VALID,917.218,VALID,0,VALID,97.3986,VALID,0.0339617,VALID,19.7477,VALID,205,VALID,0.787007,
2000-09-17, 00:57:00,VALID,917.229,VALID,0,VALID,97.1887,VALID,0.0169808,VALID,19.7348,VALID,227,VALID,0.66543,
2000-09-17, 00:58:00,VALID,917.255,VALID,0,VALID,96.9675,VALID,0,VALID,19.7124,VALID,213,VALID,0.767829,
2000-09-17, 00:59:00,VALID,917.267,VALID,0,VALID,97.1709,VALID,0.0169808,VALID,19.7126,VALID,209,VALID,0.757813,
2000-09-17, 01:00:00,VALID,917.302,VALID,0,VALID,97.4062,VALID,0,VALID,19.7057,VALID,211,VALID,0.609169,
2000-09-17, 01:01:00,VALID,917.305,VALID,0,VALID,97.4621,VALID,0,VALID,19.696,VALID,194,VALID,0.450977,
2000-09-17, 01:02:00,VALID,917.326,VALID,0,VALID,97.4367,VALID,0,VALID,19.6868,VALID,189,VALID,0.410457,
2000-09-17, 01:03:00,VALID,917.317,VALID,0,VALID,97.5257,VALID,0.0339617,VALID,19.6769,VALID,188,VALID,0.119141,
2000-09-17, 01:04:00,VALID,917.332,VALID,0,VALID,97.3884,VALID,0,VALID,19.6388,VALID,174,VALID,0.104235,
2000-09-17, 01:05:00,VALID,917.331,VALID,0,VALID,97.4316,VALID,0,VALID,19.6227,VALID,165,VALID,0.588281,
2000-09-17, 01:06:00,VALID,917.342,VALID,0,VALID,97.4774,VALID,-0.0169808,VALID,19.6195,VALID,191,VALID,0.80008,
2000-09-17, 01:07:00,VALID,917.351,VALID,0,VALID,97.663,VALID,0,VALID,19.6195,VALID,203,VALID,0.698047,
2000-09-17, 01:08:00,VALID,917.342,VALID,0,VALID,97.7699,VALID,-0.0169808,VALID,19.6227,VALID,200,VALID,0.386308,
2000-09-17, 01:09:00,VALID,917.339,VALID,0,VALID,97.85,VALID,0,VALID,19.6095,VALID,200,VALID,0.631641,
2000-09-17, 01:10:00,VALID,917.324,VALID,0,VALID,98.0089,VALID,0.0169808,VALID,19.6128,VALID,218,VALID,0.604968,
2000-09-17, 01:11:00,VALID,917.305,VALID,0,VALID,98.1348,VALID,0,VALID,19.6249,VALID,225,VALID,0.0234375,
2000-09-17, 01:12:00,VALID,917.281,VALID,0,VALID,98.1908,VALID,0,VALID,19.6314,VALID,229,VALID,0.508224,
2000-09-17, 01:13:00,VALID,917.276,VALID,0,VALID,98.22,VALID,0,VALID,19.6187,VALID,223,VALID,0.942187,
2000-09-17, 01:14:00,VALID,917.258,VALID,0,VALID,98.2493,VALID,0,VALID,19.6321,VALID,210,VALID,0.973357,
2000-09-17, 01:15:00,VALID,917.247,VALID,0,VALID,98.2493,VALID,0.0169808,VALID,19.6229,VALID,195,VALID,0.517969,
2000-09-17, 01:16:00,VALID,917.233,VALID,0,VALID,98.2912,VALID,0,VALID,19.5964,VALID,218,VALID,0.570518,
2000-09-17, 01:17:00,VALID,917.225,VALID,0,VALID,98.2989,VALID,0,VALID,19.5805,VALID,223,VALID,0.752734,
2000-09-17, 01:18:00,VALID,917.196,VALID,0,VALID,98.323,VALID,0,VALID,19.5675,VALID,216,VALID,0.846755,
2000-09-17, 01:19:00,VALID,917.194,VALID,0,VALID,98.3205,VALID,-0.0169808,VALID,19.5511,VALID,215,VALID,0.915625,
2000-09-17, 01:20:00,VALID,917.174,VALID,0,VALID,98.309,VALID,0,VALID,19.529,VALID,205,VALID,0.91139,
2000-09-17, 01:21:00,VALID,917.155,VALID,0,VALID,98.2658,VALID,-0.0169808,VALID,19.5064,VALID,207,VALID,1.20742,
2000-09-17, 01:22:00,VALID,917.135,VALID,0,VALID,98.3688,VALID,0,VALID,19.4838,VALID,209,VALID,1.40765,
2000-09-17, 01:23:00,VALID,917.107,VALID,0,VALID,98.426,VALID,0,VALID,19.4771,VALID,222,VALID,1.43086,
2000-09-17, 01:24:00,VALID,917.074,VALID,0,VALID,98.4413,VALID,0,VALID,19.4607,VALID,222,VALID,1.07257,
2000-09-17, 01:25:00,VALID,917.029,VALID,0,VALID,98.4654,VALID,0.0169808,VALID,19.4579,VALID,223,VALID,1.31523,
2000-09-17, 01:26:00,VALID,917.001,VALID,0,VALID,98.4934,VALID,0,VALID,19.4351,VALID,219,VALID,1.5024,
2000-09-17, 01:27:00,VALID,916.972,VALID,0,VALID,98.5036,VALID,0,VALID,19.4088,VALID,218,VALID,1.09004,
2000-09-17, 01:28:00,VALID,916.94,VALID,0,VALID,98.5939,VALID,0,VALID,19.3931,VALID,211,VALID,1.41653,
2000-09-17, 01:29:00,VALID,916.918,VALID,0,VALID,98.6295,VALID,0.0169808,VALID,19.3996,VALID,207,VALID,1.00234,
2000-09-17, 01:30:00,VALID,916.891,VALID,0,VALID,98.6663,VALID,0,VALID,19.3936,VALID,209,VALID,1.21454,
2000-09-17, 01:31:00,VALID,916.876,VALID,0,VALID,98.7312,VALID,-0.0169808,VALID,19.3936,VALID,217,VALID,1.45449,
2000-09-17, 01:32:00,VALID,916.848,VALID,0,VALID,98.7541,VALID,-0.0169808,VALID,19.3837,VALID,227,VALID,1.11965,
2000-09-17, 01:33:00,VALID,916.83,VALID,0,VALID,98.7859,VALID,0.0169808,VALID,19.3866,VALID,208,VALID,1.38984,
2000-09-17, 01:34:00,VALID,916.82,VALID,0,VALID,98.8126,VALID,0,VALID,19.3772,VALID,226,VALID,1.02183,
2000-09-17, 01:35:00,VALID,916.819,VALID,0,VALID,98.8418,VALID,0,VALID,19.3841,VALID,213,VALID,1.15059,
2000-09-17, 01:36:00,VALID,916.828,VALID,0,VALID,98.8355,VALID,-0.0339617,VALID,19.3546,VALID,192,VALID,1.2905,
2000-09-17, 01:37:00,VALID,916.827,VALID,0,VALID,98.8482,VALID,0,VALID,19.3389,VALID,216,VALID,0.350586,
2000-09-17, 01:38:00,VALID,916.816,VALID,0,VALID,98.8863,VALID,0,VALID,19.329,VALID,217,VALID,1.3121,
2000-09-17, 01:39:00,VALID,916.797,VALID,0,VALID,98.9359,VALID,0.0169808,VALID,19.3255,VALID,221,VALID,1.88535,
2000-09-17, 01:40:00,VALID,916.778,VALID,0,VALID,98.9575,VALID,-0.0339617,VALID,19.3387,VALID,222,VALID,1.7759,
2000-09-17, 01:41:00,VALID,916.772,VALID,0,VALID,98.9563,VALID,-0.0169808,VALID,19.3362,VALID,220,VALID,1.7625,
2000-09-17, 01:42:00,VALID,916.771,VALID,0,VALID,98.9512,VALID,0,VALID,19.3064,VALID,226,VALID,1.88421,
2000-09-17, 01:43:00,VALID,916.748,VALID,0,VALID,98.9639,VALID,0,VALID,19.3064,VALID,240,VALID,1.27031,
2000-09-17, 01:44:00,VALID,916.73,VALID,0,VALID,98.9779,VALID,0,VALID,19.2865,VALID,220,VALID,1.49856,
2000-09-17, 01:45:00,VALID,916.694,VALID,0,VALID,98.9817,VALID,-0.0169808,VALID,19.284,VALID,226,VALID,1.03281,
2000-09-17, 01:46:00,VALID,916.673,VALID,0,VALID,99.0148,VALID,-0.0169808,VALID,19.2609,VALID,238,VALID,1.10877,
2000-09-17, 01:47:00,VALID,916.661,VALID,0,VALID,99.0287,VALID,-0.0169808,VALID,19.2612,VALID,221,VALID,0.915234,
2000-09-17, 01:48:00,VALID,916.659,VALID,0,VALID,99.0237,VALID,0,VALID,19.2582,VALID,228,VALID,1.07813,
2000-09-17, 01:49:00,VALID,916.66,VALID,0,VALID,99.0084,VALID,0,VALID,19.2321,VALID,225,VALID,1.06172,
2000-09-17, 01:50:00,VALID,916.653,VALID,0,VALID,99.0415,VALID,0,VALID,19.2127,VALID,237,VALID,0.892228,
2000-09-17, 01:51:00,VALID,916.658,VALID,0,VALID,99.0415,VALID,0,VALID,19.1933,VALID,217,VALID,0.979492,
2000-09-17, 01:52:00,VALID,916.661,VALID,0,VALID,99.016,VALID,0,VALID,19.1772,VALID,201,VALID,0.812911,
2000-09-17, 01:53:00,VALID,916.664,VALID,0,VALID,98.9931,VALID,0,VALID,19.1548,VALID,183,VALID,0.652539,
2000-09-17, 01:54:00,VALID,916.645,VALID,0,VALID,98.997,VALID,-0.0169808,VALID,19.1225,VALID,218,VALID,0.674079,
2000-09-17, 01:55:00,VALID,916.622,VALID,0,VALID,98.9995,VALID,0.0169808,VALID,19.0902,VALID,208,VALID,0.792969,
2000-09-17, 01:56:00,VALID,916.617,VALID,0,VALID,99.0059,VALID,-0.0339617,VALID,19.0708,VALID,170,VALID,0.309622,
2000-09-17, 01:57:00,VALID,916.61,VALID,0,VALID,98.9919,VALID,0,VALID,19.0547,VALID,165,VALID,0.350977,
2000-09-17, 01:58:00,VALID,916.591,VALID,0,VALID,98.9664,VALID,-0.0339617,VALID,19.0224,VALID,159,VALID,0.477965,
2000-09-17, 01:59:00,VALID,916.587,VALID,0,VALID,98.899,VALID,0,VALID,18.9772,VALID,142,VALID,0.848047,
2000-09-17, 02:00:00,VALID,916.568,VALID,0,VALID,98.8914,VALID,-0.0509425,VALID,18.9421,VALID,142,VALID,0.726357,
2000-09-17, 02:01:00,VALID,916.551,VALID,0,VALID,98.9092,VALID,-0.0169808,VALID,18.9424,VALID,130,VALID,0.817773,
2000-09-17, 02:02:00,VALID,916.534,VALID,0,VALID,98.8978,VALID,-0.0339617,VALID,18.9294,VALID,146,VALID,0.678486,
2000-09-17, 02:03:00,VALID,916.508,VALID,0,VALID,98.8889,VALID,0,VALID,18.8939,VALID,134,VALID,0.806055,
2000-09-17, 02:04:00,VALID,916.501,VALID,0,VALID,98.8634,VALID,0.0169808,VALID,18.884,VALID,135,VALID,0.833882,
2000-09-17, 02:05:00,VALID,916.479,VALID,0,VALID,98.8418,VALID,0,VALID,18.8547,VALID,143,VALID,0.582227,
2000-09-17, 02:06:00,VALID,916.475,VALID,0,VALID,98.9308,VALID,-0.0169808,VALID,18.8477,VALID,188,VALID,0.38742,
2000-09-17, 02:07:00,VALID,916.465,VALID,0,VALID,99.0186,VALID,0,VALID,18.8999,VALID,222,VALID,0.18457,
2000-09-17, 02:08:00,VALID,916.471,VALID,0,VALID,99.0122,VALID,-0.0339617,VALID,18.9128,VALID,178,VALID,0,
2000-09-17, 02:09:00,VALID,916.491,VALID,0,VALID,99.0313,VALID,-0.0169808,VALID,18.9391,VALID,175,VALID,0,
2000-09-17, 02:10:00,VALID,916.487,VALID,0,VALID,99.0097,VALID,-0.0169808,VALID,18.9453,VALID,171,VALID,0.288462,
2000-09-17, 02:11:00,VALID,916.5,VALID,0,VALID,98.9677,VALID,0,VALID,18.9128,VALID,180,VALID,0.660352,
2000-09-17, 02:12:00,VALID,916.493,VALID,0,VALID,99.0402,VALID,-0.0509425,VALID,18.926,VALID,165,VALID,0.275493,
2000-09-17, 02:13:00,VALID,916.483,VALID,0,VALID,99.0211,VALID,-0.0339617,VALID,18.9262,VALID,117,VALID,0.838477,
2000-09-17, 02:14:00,VALID,916.48,VALID,0,VALID,98.9639,VALID,-0.0339617,VALID,18.8939,VALID,118,VALID,0.788862,
2000-09-17, 02:15:00,VALID,916.483,VALID,0,VALID,98.9092,VALID,-0.0169808,VALID,18.8362,VALID,144,VALID,0.807227,
2000-09-17, 02:16:00,VALID,916.474,VALID,0,VALID,98.9639,VALID,0,VALID,18.8358,VALID,150,VALID,0.726151,
2000-09-17, 02:17:00,VALID,916.449,VALID,0,VALID,98.9461,VALID,-0.0509425,VALID,18.8166,VALID,140,VALID,0.566016,
2000-09-17, 02:18:00,VALID,916.418,VALID,0,VALID,98.9944,VALID,-0.0169808,VALID,18.8002,VALID,191,VALID,0.684896,
2000-09-17, 02:19:00,VALID,916.379,VALID,0,VALID,99.0644,VALID,-0.0509425,VALID,18.8395,VALID,181,VALID,0.369922,
2000-09-17, 02:20:00,VALID,916.356,VALID,0,VALID,99.0275,VALID,-0.0509425,VALID,18.8325,VALID,187,VALID,0.161184,
2000-09-17, 02:21:00,VALID,916.345,VALID,0,VALID,98.9436,VALID,-0.0679233,VALID,18.8005,VALID,187,VALID,0.0310547,
2000-09-17, 02:22:00,VALID,916.355,VALID,0,VALID,98.8393,VALID,-0.0169808,VALID,18.7456,VALID,187,VALID,0.0969551,
2000-09-17, 02:23:00,VALID,916.346,VALID,0,VALID,98.8024,VALID,0,VALID,18.7103,VALID,187,VALID,0,
2000-09-17, 02:24:00,VALID,916.35,VALID,0,VALID,98.6969,VALID,-0.0169808,VALID,18.6489,VALID,184,VALID,0,
2000-09-17, 02:25:00,VALID,916.338,VALID,0,VALID,98.5265,VALID,0,VALID,18.558,VALID,70,VALID,0.508594,
2000-09-17, 02:26:00,VALID,916.31,VALID,0,VALID,98.4718,VALID,-0.0169808,VALID,18.526,VALID,80,VALID,0.871795,
2000-09-17, 02:27:00,VALID,916.305,VALID,0,VALID,98.5023,VALID,0,VALID,18.5363,VALID,68,VALID,0.709375,
2000-09-17, 02:28:00,VALID,916.308,VALID,0,VALID,98.6485,VALID,-0.0509425,VALID,18.5548,VALID,33,VALID,0.409334,
2000-09-17, 02:29:00,VALID,916.315,VALID,0,VALID,98.7986,VALID,-0.0509425,VALID,18.6069,VALID,340,VALID,0.344531,
2000-09-17, 02:30:00,VALID,916.296,VALID,0,VALID,98.9041,VALID,0.101885,VALID,18.6733,VALID,311,VALID,0.443109,
2000-09-17, 02:31:00,VALID,916.272,VALID,0,VALID,98.9753,VALID,0.0849042,VALID,18.7156,VALID,351,VALID,0.539453,
2000-09-17, 02:32:00,VALID,916.236,VALID,0,VALID,98.9982,VALID,0.0169808,VALID,18.7384,VALID,360,VALID,0.240132,
2000-09-17, 02:33:00,VALID,916.213,VALID,0,VALID,98.9054,VALID,0.0339617,VALID,18.6863,VALID,7,VALID,0.225,
2000-09-17, 02:34:00,VALID,916.204,VALID,0,VALID,98.6765,VALID,0.0169808,VALID,18.5573,VALID,13,VALID,0.29367,
2000-09-17, 02:35:00,VALID,916.189,VALID,0,VALID,98.5315,VALID,0.0339617,VALID,18.4863,VALID,127,VALID,0.570313,
2000-09-17, 02:36:00,VALID,916.191,VALID,0,VALID,98.4247,VALID,-0.0339617,VALID,18.4136,VALID,126,VALID,1.02611,
2000-09-17, 02:37:00,VALID,916.182,VALID,0,VALID,98.6473,VALID,-0.0679233,VALID,18.4526,VALID,117,VALID,1.24629,
2000-09-17, 02:38:00,VALID,916.161,VALID,0,VALID,98.7604,VALID,-0.0849042,VALID,18.4854,VALID,124,VALID,1.23137,
2000-09-17, 02:39:00,VALID,916.155,VALID,0,VALID,98.8533,VALID,-0.0849042,VALID,18.5105,VALID,117,VALID,1.16543,
2000-09-17, 02:40:00,VALID,916.138,VALID,0,VALID,98.8507,VALID,-0.0849042,VALID,18.5073,VALID,122,VALID,0.988281,
2000-09-17, 02:41:00,VALID,916.137,VALID,0,VALID,98.8609,VALID,-0.0339617,VALID,18.4844,VALID,131,VALID,0.757227,
2000-09-17, 02:42:00,VALID,916.147,VALID,0,VALID,98.8139,VALID,-0.0339617,VALID,18.4521,VALID,140,VALID,0.486378,
2000-09-17, 02:43:00,VALID,916.134,VALID,0,VALID,98.7808,VALID,-0.0339617,VALID,18.4231,VALID,164,VALID,0.42207,
2000-09-17, 02:44:00,VALID,916.134,VALID,0,VALID,98.8177,VALID,-0.0679233,VALID,18.4037,VALID,176,VALID,0.682566,
2000-09-17, 02:45:00,VALID,916.109,VALID,0,VALID,99.0872,VALID,0.0849042,VALID,18.4505,VALID,167,VALID,0.779297,
2000-09-17, 02:46:00,VALID,916.087,VALID,0,VALID,99.0936,VALID,0.0849042,VALID,18.519,VALID,191,VALID,0.661458,
2000-09-17, 02:47:00,VALID,916.083,VALID,0,VALID,98.9194,VALID,0.0509425,VALID,18.4798,VALID,210,VALID,0.992188,
2000-09-17, 02:48:00,VALID,916.069,VALID,0,VALID,98.9385,VALID,0.0509425,VALID,18.4669,VALID,219,VALID,1.15358,
2000-09-17, 02:49:00,VALID,916.059,VALID,0,VALID,98.8914,VALID,0.0169808,VALID,18.4676,VALID,229,VALID,1.05859,
2000-09-17, 02:50:00,VALID,916.044,VALID,0,VALID,98.8851,VALID,0.0679233,VALID,18.4512,VALID,217,VALID,1.13902,
2000-09-17, 02:51:00,VALID,916.037,VALID,0,VALID,98.9079,VALID,0.0169808,VALID,18.448,VALID,206,VALID,1.11797,
2000-09-17, 02:52:00,VALID,916.027,VALID,0,VALID,98.9703,VALID,0.0509425,VALID,18.4574,VALID,201,VALID,1.25884,
2000-09-17, 02:53:00,VALID,916.026,VALID,0,VALID,99.002,VALID,0.0679233,VALID,18.4798,VALID,194,VALID,1.05128,
2000-09-17, 02:54:00,VALID,916.041,VALID,0,VALID,98.9346,VALID,0.0169808,VALID,18.4639,VALID,194,VALID,0.985377,
2000-09-17, 02:55:00,VALID,916.048,VALID,0,VALID,98.9105,VALID,0.0849042,VALID,18.4411,VALID,210,VALID,0.704102,
2000-09-17, 02:56:00,VALID,916.051,VALID,0,VALID,98.9512,VALID,0.0169808,VALID,18.4448,VALID,185,VALID,0.768914,
2000-09-17, 02:57:00,VALID,916.054,VALID,0,VALID,98.9715,VALID,0.0339617,VALID,18.4415,VALID,202,VALID,0.96582,
2000-09-17, 02:58:00,VALID,916.059,VALID,0,VALID,99.0084,VALID,0.0169808,VALID,18.4381,VALID,189,VALID,0.752003,
2000-09-17, 02:59:00,VALID,916.067,VALID,0,VALID,98.9893,VALID,0.0679233,VALID,18.4288,VALID,174,VALID,0.726367,
2000-09-17, 03:00:00,VALID,916.075,VALID,0,VALID,98.9868,VALID,-0.0339617,VALID,18.4074,VALID,171,VALID,1.39104,
2000-09-17, 03:01:00,VALID,916.084,VALID,0,VALID,99.03,VALID,-0.0169808,VALID,18.4111,VALID,171,VALID,1.21055,
2000-09-17, 03:02:00,VALID,916.093,VALID,0,VALID,98.9957,VALID,-0.0339617,VALID,18.3751,VALID,157,VALID,0.91887,
2000-09-17, 03:03:00,VALID,916.097,VALID,0,VALID,99.0033,VALID,-0.0509425,VALID,18.3322,VALID,163,VALID,1.01582,
2000-09-17, 03:04:00,VALID,916.112,VALID,0,VALID,99.1,VALID,-0.0339617,VALID,18.3396,VALID,170,VALID,0.66509,
2000-09-17, 03:05:00,VALID,916.1,VALID,0,VALID,99.072,VALID,-0.0169808,VALID,18.3329,VALID,146,VALID,0.410937,
2000-09-17, 03:06:00,VALID,916.107,VALID,0,VALID,99.0936,VALID,-0.0169808,VALID,18.3299,VALID,145,VALID,0.353165,
2000-09-17, 03:07:00,VALID,916.101,VALID,0,VALID,99.1076,VALID,0,VALID,18.3232,VALID,154,VALID,0.362305,
2000-09-17, 03:08:00,VALID,916.113,VALID,0,VALID,99.1406,VALID,-0.0169808,VALID,18.3202,VALID,184,VALID,0.148849,
2000-09-17, 03:09:00,VALID,916.099,VALID,0,VALID,99.161,VALID,-0.0169808,VALID,18.3297,VALID,175,VALID,0,
2000-09-17, 03:10:00,VALID,916.116,VALID,0,VALID,99.1686,VALID,-0.0169808,VALID,18.3398,VALID,180,VALID,0,
2000-09-17, 03:11:00,VALID,916.102,VALID,0,VALID,99.1839,VALID,-0.0339617,VALID,18.3269,VALID,232,VALID,0,
2000-09-17, 03:12:00,VALID,916.096,VALID,0,VALID,99.2131,VALID,-0.0169808,VALID,18.3426,VALID,244,VALID,0,
2000-09-17, 03:13:00,VALID,916.1,VALID,0,VALID,99.2119,VALID,-0.0169808,VALID,18.3525,VALID,240,VALID,0.0886719,
2000-09-17, 03:14:00,VALID,916.087,VALID,0,VALID,99.2258,VALID,-0.0169808,VALID,18.3488,VALID,229,VALID,0.0180288,
2000-09-17, 03:15:00,VALID,916.07,VALID,0,VALID,99.1852,VALID,-0.0339617,VALID,18.3301,VALID,229,VALID,0,
2000-09-17, 03:16:00,VALID,916.07,VALID,0,VALID,99.1991,VALID,0,VALID,18.3366,VALID,229,VALID,0.00123355,
2000-09-17, 03:17:00,VALID,916.071,VALID,0,VALID,99.2258,VALID,-0.0679233,VALID,18.3562,VALID,255,VALID,0,
2000-09-17, 03:18:00,VALID,916.078,VALID,0,VALID,99.2424,VALID,-0.0679233,VALID,18.3753,VALID,290,VALID,0.0697115,
2000-09-17, 03:19:00,VALID,916.086,VALID,0,VALID,99.2335,VALID,-0.0509425,VALID,18.3721,VALID,292,VALID,0,
2000-09-17, 03:20:00,VALID,916.107,VALID,0,VALID,99.2258,VALID,-0.0509425,VALID,18.3716,VALID,293,VALID,0,
2000-09-17, 03:21:00,VALID,916.119,VALID,0,VALID,99.1915,VALID,-0.101885,VALID,18.356,VALID,273,VALID,0,
2000-09-17, 03:22:00,VALID,916.123,VALID,0,VALID,99.1127,VALID,-0.0679233,VALID,18.3172,VALID,270,VALID,0.447316,
2000-09-17, 03:23:00,VALID,916.112,VALID,0,VALID,99.0491,VALID,-0.0849042,VALID,18.2759,VALID,250,VALID,0.28125,
2000-09-17, 03:24:00,VALID,916.103,VALID,0,VALID,99.0351,VALID,-0.0509425,VALID,18.23,VALID,237,VALID,0.315584,
2000-09-17, 03:25:00,VALID,916.093,VALID,0,VALID,98.9753,VALID,-0.0849042,VALID,18.2049,VALID,194,VALID,0.542773,
2000-09-17, 03:26:00,VALID,916.078,VALID,0,VALID,98.9499,VALID,-0.0849042,VALID,18.1527,VALID,228,VALID,0.409856,
2000-09-17, 03:27:00,VALID,916.079,VALID,0,VALID,99.0275,VALID,-0.0849042,VALID,18.1463,VALID,219,VALID,0.923633,
2000-09-17, 03:28:00,VALID,916.047,VALID,0,VALID,99.1394,VALID,-0.0849042,VALID,18.1659,VALID,223,VALID,1.54091,
2000-09-17, 03:29:00,VALID,916.033,VALID,0,VALID,99.2144,VALID,-0.0849042,VALID,18.2143,VALID,232,VALID,1.32598,
2000-09-17, 03:30:00,VALID,915.998,VALID,0,VALID,99.2513,VALID,0.0169808,VALID,18.2418,VALID,209,VALID,1.05649,
2000-09-17, 03:31:00,VALID,915.997,VALID,0,VALID,99.1012,VALID,0.0679233,VALID,18.2256,VALID,178,VALID,0.833398,
2000-09-17, 03:32:00,VALID,915.996,VALID,0,VALID,99.1139,VALID,0.0339617,VALID,18.2095,VALID,208,VALID,0.68236,
2000-09-17, 03:33:00,VALID,915.993,VALID,0,VALID,99.086,VALID,0.0169808,VALID,18.2035,VALID,189,VALID,0.614648,
2000-09-17, 03:34:00,VALID,915.991,VALID,0,VALID,99.0796,VALID,0.0169808,VALID,18.1936,VALID,194,VALID,0.732372,
2000-09-17, 03:35:00,VALID,916.001,VALID,0,VALID,99.0516,VALID,0.0339617,VALID,18.1804,VALID,186,VALID,0.605469,